Regional Weather Roundup
Issued by NWS

Home | Current Version | Previous Version | Text Only | Print | Product List | Glossary Off
Versions: 1 2 3 4 5 6 7 8 9 10 11 12 13 14 15 16 17 18 19 20 21 22 23 24 25 26 27 28 29 30 31 32 33 34 35 36 37 38 39 40 41 42 43 44 45 46 47 48 49 50

000
ASUS43 KOAX 020810
RWRNE

WEATHER ROUNDUP FOR NEBRASKA
NATIONAL WEATHER SERVICE OMAHA NE
300 AM CDT TUE SEP 02 2014

NOTES: SATELLITE DATA IS BEING USED TO AUGMENT CLOUD COVER ABOVE
       12000 FEET.
       "FAIR" INDICATES FEW OR NO CLOUDS BELOW 12,000 FEET WITH NO
       SIGNIFICANT WEATHER AND/OR OBSTRUCTIONS TO VISIBILITY.

  * THESE STATIONS DO NOT REPORT WEATHER SUCH AS RAIN...SNOW OR FOG.

NEZ001>004-019>022-054>056-020900-
NEBRASKA PANHANDLE

CITY           SKY/WX    TMP DP  RH WIND       PRES   REMARKS
SCOTTSBLUFF    CLEAR     46  45  96 CALM      30.08S
ALLIANCE       CLEAR     43  42  97 W5        30.07S
CHADRON        CLEAR     45  44  97 SW5       30.04S
KIMBALL        CLEAR     44  42  92 W3        30.10F
SIDNEY         CLEAR     45  42  89 CALM      30.10F
$$

NEZ057>060-069>072-079>082-020900-
SOUTHWEST NEBRASKA

CITY           SKY/WX    TMP DP  RH WIND       PRES   REMARKS
NORTH PLATTE   CLEAR     50  49  96 NW5       30.04S
IMPERIAL       CLEAR     54  52  93 N3        30.05F
LEXINGTON      CLEAR     54  53  96 CALM      30.01S
MCCOOK         CLEAR     58  54  86 CALM      30.04F
OGALLALA       CLEAR     49  48  97 CALM      30.06S
$$

NEZ005>010-023>029-035>040-094-020900-
NORTH CENTRAL NEBRASKA

CITY           SKY/WX    TMP DP  RH WIND       PRES   REMARKS
VALENTINE      CLEAR     49  48  97 SW9       30.01S
AINSWORTH      CLEAR     52  49  90 W6        30.00F
BROKEN BOW     CLEAR     52  50  93 NW3       30.01F
O`NEILL        CLEAR     55  55  99 W6        29.98F
ORD            CLEAR     52  51  97 SW6       29.98F
THEDFORD       CLEAR     51  50  97 W3        30.04F
$$

NEZ041-046>049-061>064-073>077-083>087-020900-
SOUTH CENTRAL NEBRASKA

CITY           SKY/WX    TMP DP  RH WIND       PRES   REMARKS
GRAND ISLAND   CLEAR     56  53  90 NW7       29.98S
AURORA         CLEAR     54  54 100 W3        29.97R
HASTINGS       CLEAR     56  52  86 SW3       29.99R
HEBRON         PTCLDY    57  54  89 CALM      29.98S
HOLDREGE       CLEAR     55  53  94 CALM      30.02S
KEARNEY *      CLEAR     55  54  94 SW5       30.00F
YORK           CLEAR     55 N/A N/A S6        29.97R
$$

NEZ011>018-030>034-042>045-020900-
NORTHEAST NEBRASKA

CITY           SKY/WX    TMP DP  RH WIND       PRES   REMARKS
NORFOLK        CLEAR     57  55  93 W8        29.96S
ALBION         CLEAR     55  53  94 NW7       29.98R
BLAIR          MOCLDY    59  56  91 W3        29.93R
FREMONT        PTCLDY    60  58  94 S3        29.95R
TEKAMAH        MOCLDY    59  57  93 SW7       29.94R
WAYNE          CLEAR     58  56  94 SW7       29.95S
$$

NEZ050>053-065>068-078-088>093-020900-
SOUTHEAST NEBRASKA

CITY           SKY/WX    TMP DP  RH WIND       PRES   REMARKS
LINCOLN        MOCLDY    62  56  80 CALM      29.93F
OMAHA EPPLEY   MOCLDY    62  58  86 CALM      29.93F
BEATRICE       MOCLDY    61  60  95 CALM      29.95S
FALLS CITY     CLEAR     63  61  93 W3        29.94F
NEBRASKA CITY  PTCLDY    61  61 100 S3        29.94F
PLATTSMOUTH    PTCLDY    63  59  88 CALM      29.91F
$$

NEZ044-045-051>053-067-020900-
OMAHA AREA

CITY           SKY/WX    TMP DP  RH WIND       PRES   REMARKS
OMAHA EPPLEY   MOCLDY    62  58  86 CALM      29.93F
BLAIR          MOCLDY    59  56  91 W3        29.93R
FREMONT        PTCLDY    60  58  94 S3        29.95R
MILLARD        MOCLDY    63  58  83 CALM      29.93R
OFFUTT AFB     MOCLDY    62  62  99 NW6       29.92F
PLATTSMOUTH    PTCLDY    63  59  88 CALM      29.91F
WAHOO          FAIR      59  56  91 NW6       29.95S
$$


USA.gov is the U.S. government's official web portal to all federal, state and local government web resources and services.